Date String (YYYY-MM-DD hh:mm:ss) UTC,Instrument flags,absolute air pressure of the measurement (hPa),sample flow rate (lpm),inlet stack bypass flow (lpm),air temperature of the measurement (°C),ambient temperature measured by the external sensor (°C),aerosol sample conditioner tube jacket temperature (°C),OPC LED temperature (°C),internal box temperature (°C),relative humidity of the measurement (%),span deviation,mass concentration of particles derived from Lorenz-Mie calculation of OPC scattering (μg/m³),mass concentration of particles derived from Lorenz-Mie calculation of OPC scattering (μg/m³),mass concentration of particles derived from Lorenz-Mie calculation of OPC scattering (μg/m³)
DateTimeUTC,F1_M11,P_M11,Q1_M11,Q2_M11,T1_M11,T2_M11,T3_M11,T4_M11,T5_M11,U1_M11,ZSPAN_M11,X0_M11,X2_M11,X1_M11
2023-06-18 22:00:00,SystemResetWarning,0823.6,5.00,000.00,029.3,027.9,000.0,037.7,031.0,20.8,0000.0,0007.42,0004.30,0003.92
2023-06-18 22:01:00,SystemResetWarning,0823.6,4.99,000.00,029.3,027.4,000.0,037.7,031.1,21.1,0000.0,0007.39,0004.28,0003.91
2023-06-18 22:02:00,SystemResetWarning,0823.5,5.00,000.00,029.3,025.3,000.0,037.7,030.9,21.9,0000.0,0007.61,0004.27,0003.91
2023-06-18 22:03:00,SystemResetWarning,0823.5,5.01,000.00,029.3,024.3,000.0,037.6,030.8,23.9,0000.0,0007.97,0004.27,0003.91
2023-06-18 22:04:00,SystemResetWarning,0823.5,5.02,000.00,029.2,024.6,000.0,037.6,030.7,23.5,0000.0,0008.27,0004.27,0003.90
2023-06-18 22:05:00,SystemResetWarning,0823.5,4.99,000.00,029.1,025.1,000.0,037.6,030.5,25.4,0000.0,0008.73,0004.32,0003.92
2023-06-18 22:06:00,SystemResetWarning,0823.5,5.00,000.00,029.1,025.6,000.0,037.6,030.5,24.5,0000.0,0009.03,0004.35,0003.92
2023-06-18 22:07:00,SystemResetWarning,0823.5,4.99,000.00,029.1,026.1,000.0,037.6,030.6,21.8,0000.0,0009.77,0004.37,0003.93
2023-06-18 22:08:00,SystemResetWarning,0823.5,4.98,000.00,029.1,026.5,000.0,037.6,030.7,21.7,0000.0,0010.05,0004.39,0003.94
2023-06-18 22:09:00,SystemResetWarning,0823.5,5.01,000.00,029.1,026.9,000.0,037.6,030.8,21.2,0000.0,0009.85,0004.36,0003.92
2023-06-18 22:10:00,SystemResetWarning,0823.6,5.01,000.00,029.2,027.2,000.0,037.6,030.8,21.8,0000.0,0009.71,0004.32,0003.92
2023-06-18 22:11:00,SystemResetWarning,0823.5,4.98,000.00,029.2,027.5,000.0,037.7,030.9,21.1,0000.0,0010.23,0004.33,0003.91
2023-06-18 22:12:00,SystemResetWarning,0823.6,5.00,000.00,029.3,027.7,000.0,037.7,031.0,20.7,0000.0,0010.15,0004.33,0003.91
2023-06-18 22:13:00,SystemResetWarning,0823.6,5.01,000.00,029.3,027.9,000.0,037.7,031.1,21.1,0000.0,0009.91,0004.32,0003.90
2023-06-18 22:14:00,SystemResetWarning,0823.6,5.00,000.00,029.4,027.1,000.0,037.7,031.1,22.7,0000.0,0009.59,0004.30,0003.89
2023-06-18 22:15:00,SystemResetWarning,0823.6,5.00,000.00,029.3,025.5,000.0,037.7,031.0,22.4,0000.0,0009.31,0004.30,0003.89
2023-06-18 22:16:00,SystemResetWarning,0823.6,5.02,000.00,029.3,025.5,000.0,037.6,031.0,22.7,0000.0,0009.42,0004.28,0003.88
2023-06-18 22:17:00,SystemResetWarning,0823.6,5.00,000.00,029.3,025.8,000.0,037.6,030.7,23.2,0000.0,0009.05,0004.26,0003.87
2023-06-18 22:18:00,SystemResetWarning,0823.6,5.00,000.00,029.2,026.3,000.0,037.7,030.8,23.0,0000.0,0009.39,0004.26,0003.86
2023-06-18 22:19:00,SystemResetWarning,0823.6,5.01,000.00,029.3,026.7,000.0,037.7,030.8,22.6,0000.0,0009.23,0004.27,0003.86
2023-06-18 22:20:00,SystemResetWarning,0823.6,4.99,000.00,029.3,027.0,000.0,037.7,030.9,22.1,0000.0,0009.33,0004.31,0003.85
2023-06-18 22:21:00,SystemResetWarning,0823.5,5.00,000.00,029.3,027.4,000.0,037.7,031.0,22.1,0000.0,0009.28,0004.28,0003.85
2023-06-18 22:22:00,SystemResetWarning,0823.5,5.01,000.00,029.4,027.6,000.0,037.8,031.0,21.7,0000.0,0008.80,0004.24,0003.84
2023-06-18 22:23:00,SystemResetWarning,0823.5,5.01,000.00,029.4,027.7,000.0,037.8,031.1,22.5,0000.0,0008.76,0004.22,0003.84
2023-06-18 22:24:00,SystemResetWarning,0823.5,4.98,000.00,029.4,026.1,000.0,037.8,031.1,22.7,0000.0,0009.47,0004.24,0003.86
2023-06-18 22:25:00,SystemResetWarning,0823.5,5.02,000.00,029.4,024.4,000.0,037.7,031.0,22.8,0000.0,0009.64,0004.25,0003.87
2023-06-18 22:26:00,SystemResetWarning,0823.5,5.01,000.00,029.3,024.5,000.0,037.7,030.9,23.7,0000.0,0010.13,0004.24,0003.88
2023-06-18 22:27:00,SystemResetWarning,0823.5,5.00,000.00,029.2,024.9,000.0,037.7,030.6,23.4,0000.0,0010.29,0004.24,0003.87
2023-06-18 22:28:00,SystemResetWarning,0823.5,5.00,000.00,029.2,025.4,000.0,037.7,030.6,22.8,0000.0,0010.37,0004.27,0003.89
2023-06-18 22:29:00,SystemResetWarning,0823.5,5.00,000.00,029.2,026.0,000.0,037.7,030.7,23.9,0000.0,0009.71,0004.29,0003.90
2023-06-18 22:30:00,SystemResetWarning,0823.6,5.00,000.00,029.2,026.4,000.0,037.7,030.8,23.2,0000.0,0009.29,0004.26,0003.90
2023-06-18 22:31:00,SystemResetWarning,0823.6,5.01,000.00,029.2,026.9,000.0,037.7,030.9,22.2,0000.0,0009.20,0004.23,0003.90
2023-06-18 22:32:00,SystemResetWarning,0823.5,4.98,000.00,029.2,027.2,000.0,037.7,030.9,22.0,0000.0,0009.48,0004.23,0003.91
2023-06-18 22:33:00,SystemResetWarning,0823.5,5.00,000.00,029.3,027.5,000.0,037.7,031.0,22.0,0000.0,0010.18,0004.24,0003.91
2023-06-18 22:34:00,SystemResetWarning,0823.5,5.02,000.00,029.3,027.7,000.0,037.8,031.0,22.1,0000.0,0010.24,0004.27,0003.92
2023-06-18 22:35:00,SystemResetWarning,0823.5,5.00,000.00,029.4,027.5,000.0,037.8,031.1,22.4,0000.0,0009.72,0004.29,0003.91
2023-06-18 22:36:00,SystemResetWarning,0823.5,4.99,000.00,029.4,025.5,000.0,037.7,031.0,22.9,0000.0,0009.55,0004.29,0003.91
2023-06-18 22:37:00,SystemResetWarning,0823.5,5.01,000.00,029.3,024.2,000.0,037.7,030.8,23.5,0000.0,0009.05,0004.29,0003.90
2023-06-18 22:38:00,SystemResetWarning,0823.5,5.02,000.00,029.3,024.6,000.0,037.6,030.8,22.9,0000.0,0008.13,0004.25,0003.88
2023-06-18 22:39:00,SystemResetWarning,0823.5,4.99,000.00,029.2,025.0,000.0,037.6,030.5,22.5,0000.0,0007.97,0004.24,0003.88
2023-06-18 22:40:00,SystemResetWarning,0823.5,5.00,000.00,029.1,025.5,000.0,037.6,030.6,22.2,0000.0,0008.58,0004.22,0003.87
2023-06-18 22:41:00,SystemResetWarning,0823.5,5.00,000.00,029.1,026.0,000.0,037.6,030.7,23.1,0000.0,0008.70,0004.22,0003.87
2023-06-18 22:42:00,SystemResetWarning,0823.6,4.99,000.00,029.1,026.5,000.0,037.6,030.7,23.3,0000.0,0008.92,0004.23,0003.87
2023-06-18 22:43:00,SystemResetWarning,0823.5,5.00,000.00,029.2,026.9,000.0,037.7,030.8,21.3,0000.0,0008.98,0004.23,0003.87
2023-06-18 22:44:00,SystemResetWarning,0823.6,5.01,000.00,029.2,027.3,000.0,037.7,030.9,21.1,0000.0,0008.05,0004.22,0003.87
2023-06-18 22:45:00,SystemResetWarning,0823.6,5.00,000.00,029.3,027.5,000.0,037.7,031.0,22.8,0000.0,0008.48,0004.22,0003.87
2023-06-18 22:46:00,SystemResetWarning,0823.6,5.00,000.00,029.3,027.8,000.0,037.7,031.0,22.3,0000.0,0008.50,0004.18,0003.87
2023-06-18 22:47:00,SystemResetWarning,0823.6,5.00,000.00,029.3,027.8,000.0,037.7,031.1,21.2,0000.0,0008.52,0004.16,0003.86
2023-06-18 22:48:00,SystemResetWarning,0823.5,4.98,000.00,029.4,026.1,000.0,037.7,031.1,20.5,0000.0,0008.43,0004.14,0003.85
2023-06-18 22:49:00,SystemResetWarning,0823.4,5.00,000.00,029.3,024.4,000.0,037.7,030.8,19.9,0000.0,0008.52,0004.14,0003.85
2023-06-18 22:50:00,SystemResetWarning,0823.5,5.02,000.00,029.3,024.5,000.0,037.6,030.8,21.2,0000.0,0008.71,0004.13,0003.84
2023-06-18 22:51:00,SystemResetWarning,0823.5,5.00,000.00,029.2,024.9,000.0,037.6,030.6,20.0,0000.0,0008.14,0004.11,0003.84
2023-06-18 22:52:00,SystemResetWarning,0823.5,5.00,000.00,029.1,025.5,000.0,037.6,030.6,21.4,0000.0,0007.86,0004.08,0003.83
2023-06-18 22:53:00,SystemResetWarning,0823.4,5.00,000.00,029.1,026.0,000.0,037.6,030.7,20.7,0000.0,0007.67,0004.06,0003.82
2023-06-18 22:54:00,SystemResetWarning,0823.4,4.99,000.00,029.1,026.4,000.0,037.6,030.8,22.5,0000.0,0007.74,0004.09,0003.82
2023-06-18 22:55:00,SystemResetWarning,0823.4,4.99,000.00,029.2,026.8,000.0,037.6,030.8,24.5,0000.0,0007.70,0004.09,0003.81
2023-06-18 22:56:00,SystemResetWarning,0823.4,5.00,000.00,029.2,027.2,000.0,037.7,030.9,23.9,0000.0,0007.10,0004.10,0003.81
2023-06-18 22:57:00,SystemResetWarning,0823.4,5.00,000.00,029.2,027.5,000.0,037.7,031.0,24.6,0000.0,0006.96,0004.11,0003.82
2023-06-18 22:58:00,SystemResetWarning,0823.4,5.01,000.00,029.3,027.7,000.0,037.7,031.0,23.9,0000.0,0006.85,0004.13,0003.83
2023-06-18 22:59:00,SystemResetWarning,0823.4,5.01,000.00,029.3,027.9,000.0,037.7,031.1,24.5,0000.0,0007.08,0004.15,0003.85
